Regional Weather Roundup
Issued by NWS

Home | Current Version | Previous Version | Text Only | Print | Product List | Glossary On
Versions: 1 2 3 4 5 6 7 8 9 10 11 12 13 14 15 16 17 18 19 20 21 22 23 24 25 26 27
000
ASUS42 KFFC 260103
RWRGA
WEATHER ROUNDUP FOR GEORGIA
NATIONAL WEATHER SERVICE PEACHTREE CITY GA
900 PM EDT SAT OCT 25 2014

NOTE: "FAIR" INDICATES FEW OR NO CLOUDS BELOW 12,000 FEET WITH NO
SIGNIFICANT WEATHER AND/OR OBSTRUCTIONS TO VISIBILITY.

* = USE WITH CAUTION. THE STATIONS MARKED WITH AN ASTERISK MAY NOT
REPORT WEATHER SUCH AS PRECIPITATION, FOG, OR THUNDER AND ARE NOT
QUALITY CONTROLLED BY NWS.

THE REMARK "TC" DENOTES TEMPERATURE READING IN DEGREES CELSIUS.

GAZ001>058-260200-
NORTH GEORGIA

CITY           SKY/WX    TMP DP  RH WIND       PRES   REMARKS
ATLANTA        CLEAR     65  48  54 W5        30.03R
ATHENS         CLEAR     61  47  59 W5        29.99S
CHAMBLEE       CLEAR     58  49  72 CALM      30.03R
PEACHTREE CITY CLEAR     56  53  90 CALM      30.04S
ROME           PTCLDY    61  55  81 CALM      30.03R
WEST ATLANTA   CLEAR     62  50  64 CALM      30.04R
GAINESVILLE    CLEAR     64  49  57 NW8       30.04S
CARTERSVILLE   MOCLDY    59  53  80 CALM      30.04R


CITY           SKY/WX    TMP DP  RH WIND       PRES   REMARKS
DALTON*        CLEAR     55  55 100 CALM      30.04S
LAWRENCEVILLE* CLEAR     64  45  48 W6        30.03
MARIETTA       CLEAR     62  52  70 W7        30.04R
KENNESAW*      PTCLDY    61  50  67 CALM      30.06R
$$

GAZ059>098-102>109-260200-
CENTRAL GEORGIA

CITY           SKY/WX    TMP DP  RH WIND       PRES   REMARKS
AUGUSTA-BUSH   CLEAR     53  41  63 CALM      29.98F
AUGUSTA-DANIEL CLEAR     68  44  42 CALM      29.99F
COLUMBUS       CLEAR     67  51  56 N3        30.03R
MACON          CLEAR     56  52  86 CALM      30.01S
ROBINS AFB     CLEAR     57  54  90 CALM      30.01R


CITY           SKY/WX    TMP DP  RH WIND       PRES   REMARKS
LAGRANGE*      CLEAR     59  56  91 CALM      30.04S
SYLVANIA*      CLEAR     61  58  90 CALM      30.00R
MILLEDGEVILLE* CLEAR     55  54  94 CALM      30.00S
$$

GAZ099>101-110>166-260200-
SOUTH GEORGIA

CITY           SKY/WX    TMP DP  RH WIND       PRES   REMARKS
SAVANNAH       CLEAR     60  51  72 CALM      29.99S
VALDOSTA       CLEAR     55  44  66 CALM      30.01R
ALMA           CLEAR     54  51  90 CALM      30.01R FOG
ST SIMONS      CLEAR     60  53  77 CALM      30.00R
FT STEWART     CLEAR     56  51  83 CALM      29.98R
ALBANY         CLEAR     60  52  74 CALM      30.04R
HUNTER AFB     CLEAR     58  52  80 CALM      29.97S
MOODY AFB      CLEAR     59  47  63 W2        30.01R
BRUNSWICK      CLEAR     57  54  88 CALM      30.01R


CITY           SKY/WX    TMP DP  RH WIND       PRES   REMARKS
BAINBRIDGE*    CLEAR     61  52  72 CALM      30.03R
MOULTRIE*      CLEAR     61  52  72 CALM      30.03R
VIDALIA*       CLEAR     61  52  72 CALM      30.01R
WAYCROSS*      CLEAR     61  56  84 CALM      30.00S
DOUGLAS*       CLEAR     61  50  67 CALM      30.02R
$$



USA.gov is the U.S. government's official web portal to all federal, state and local government web resources and services.